User: anonymous   Login
Location: Shades State Park
(39.9310°N, 87.0690°W)
Time: 10:17:24
(UTC-05:00)
Language:

H-2A R/B - Orbit

View from above orbital plane
View from above orbital plane
View from above satellite
View from above satellite

Ground track
Ground track

The orbit data is extracted from the following two-line orbital elements,

1 27601U 02056E   17024.23374948  .00000024  00000-0  24297-4 0  9997
2 27601  98.3950  96.8864 0072124   3.2063  62.4760 14.31759338737212
Epoch (UTC): 24 January 2017 05:36:35
Eccentricity: 0.0072124
inclination: 98.3950°
perigee height: 734 km
apogee height: 837 km
right ascension of ascending node: 96.8864°
argument of perigee: 3.2063°
revolutions per day: 14.31759338
mean anomaly at epoch: 62.4760°
orbit number at epoch: 73721

The dashed part of the orbit path shows where the satellite is in the earth's shadow,  

DLR